Location: Bosdarros
(43.2167°N, 0.3667°W)
Time: 15:01:29
(UTC+00:00)

Cosmos 2221 - Pass Details

Date: 22 April 2021
Orbit: 593 x 615 km, 82.5° (Epoch: 12 May)

Event Time Altitude Azimuth Distance (km) Brightness Sun altitude
Exits shadow 21:41:53 43° 26° (NNE) 846 3.3 -26.0°
Drops below altitude 10° 21:44:51 10° 13° (NNE) 1,942 5.6 -26.3°
Sets 21:47:05 0° 11° (N) 2,851 6.6 -26.6°
